The Dalles, WA

1:19 PM PST on December 15, 2019 (GMT -0800)
Columbia Gorge Regional-The Dalles

Weather History for KDLS - October, 2019

Change the Weather History Date:

Saturday, October 19, 2019

  Actual Average Record
Temperature  
Mean Temperature 50 °F -  
Max Temperature 57 °F 65 °F 76 °F (1981)
Min Temperature 46 °F 40 °F 23 °F (1949)
Degree Days  
Heating Degree Days 14    
Moisture  
Dew Point 44 °F    
Average Humidity 81    
Maximum Humidity 100    
Minimum Humidity 59    
Precipitation  
Precipitation 0.29 in - - ()
Sea Level Pressure  
Sea Level Pressure 29.79 in    
Wind  
Wind Speed 6 mph (West)    
Max Wind Speed 18 mph    
Max Gust Speed 34 mph    
Visibility 9 miles    
Events Rain    
Averages and records for this station are not official NWS values.
T = Trace of Precipitation, MM = Missing Value Source: NWS Daily Summary

Daily Weather History Graph

Daily Weather History Graph

Search for Another Location

Airport or City:

Astronomy

Oct. 19, 2019 Rise Set
Actual Time 7:26 AM PDT 6:12 PM PDT
Civil Twilight 6:56 AM PDT 6:42 PM PDT
Nautical Twilight 6:21 AM PDT 7:16 PM PDT
Astronomical Twilight 5:47 AM PDT 7:51 PM PDT
Moon 10:13 PM PDT (10/19) 1:16 PM PDT (10/19)
Length of Visible Light 11h 46m
Length of Day
10h 45m
Waning Gibbous, 68% of the Moon is Illuminated
Oct 19
Waning Gibbous
Oct 21
Last Quarter
Oct 27
New
Nov 4
First Quarter
Nov 12
Full

Hourly Weather History & Observations

Time (PDT) Temp. Dew Point Humidity Pressure Visibility Wind Dir Wind Speed Gust Speed Precip Events Conditions
12:53 AM 48.0 °F 45.0 °F 89% 29.78 in 10.0 mi Calm Calm - 0.00 in Rain Light Rain
1:53 AM 46.9 °F 45.0 °F 93% 29.75 in 10.0 mi Calm Calm - 0.01 in   Overcast
2:53 AM 46.9 °F 45.0 °F 93% 29.68 in 10.0 mi SSW 4.6 mph - N/A   Overcast
3:53 AM 46.9 °F 46.9 °F 100% 29.65 in 7.0 mi East 3.5 mph - 0.04 in Rain Light Rain
4:53 AM 46.9 °F 46.9 °F 100% 29.61 in 6.0 mi South 5.8 mph - 0.07 in Rain Light Rain
5:48 AM 46.4 °F 46.4 °F 100% 29.59 in 5.0 mi Calm Calm - 0.01 in   Overcast
5:53 AM 46.9 °F 46.9 °F 100% 29.60 in 5.0 mi SSW 3.5 mph - 0.01 in   Overcast
6:18 AM 48.0 °F 48.0 °F 100% 29.61 in 5.0 mi SSW 5.8 mph - 0.02 in Rain Light Rain
6:32 AM 48.0 °F 48.0 °F 100% 29.61 in 6.0 mi Calm Calm - 0.03 in Rain Light Rain
6:53 AM 48.0 °F 48.0 °F 100% 29.62 in 9.0 mi Calm Calm - 0.04 in   Overcast
7:53 AM 48.0 °F 48.0 °F 100% 29.66 in 7.0 mi Calm Calm - 0.01 in Rain Light Rain
8:53 AM 48.9 °F 46.9 °F 93% 29.68 in 7.0 mi WSW 13.8 mph 27.6 mph 0.03 in Rain Light Rain
9:53 AM 51.1 °F - N/A% 29.72 in 10.0 mi Variable 3.5 mph - 0.00 in   Overcast
10:53 AM 53.1 °F - N/A% 29.73 in 10.0 mi West 15.0 mph - 0.01 in   Mostly Cloudy
11:53 AM 55.9 °F 43.0 °F 62% 29.75 in 10.0 mi West 15.0 mph - 0.00 in   Mostly Cloudy
12:53 PM 54.0 °F 42.1 °F 64% 29.78 in 10.0 mi West 16.1 mph 25.3 mph N/A   Overcast
1:53 PM 54.0 °F 44.1 °F 69% 29.80 in 10.0 mi NW 15.0 mph 26.5 mph 0.04 in Rain Light Rain
2:53 PM 55.0 °F 45.0 °F 69% 29.82 in 10.0 mi NW 15.0 mph 24.2 mph 0.02 in   Scattered Clouds
3:53 PM 55.0 °F 43.0 °F 64% 29.87 in 10.0 mi West 18.4 mph - 0.00 in   Partly Cloudy
4:53 PM 53.1 °F 45.0 °F 74% 29.92 in 10.0 mi WNW 17.3 mph 34.5 mph 0.01 in Rain Light Rain
5:53 PM 51.1 °F 42.1 °F 71% 29.94 in 10.0 mi West 10.4 mph - 0.00 in   Clear
6:53 PM 51.1 °F 37.0 °F 59% 29.96 in 10.0 mi SW 8.1 mph 18.4 mph N/A   Clear
7:53 PM 51.1 °F 37.9 °F 61% 29.99 in 10.0 mi WNW 12.7 mph - N/A   Clear
8:53 PM 50.0 °F 39.9 °F 68% 30.00 in 10.0 mi West 11.5 mph 24.2 mph N/A   Partly Cloudy
9:53 PM 50.0 °F 39.9 °F 68% 30.02 in 10.0 mi WNW 10.4 mph 20.7 mph N/A   Clear
10:53 PM 50.0 °F 39.0 °F 66% 30.06 in 10.0 mi Variable 4.6 mph - N/A   Overcast
11:53 PM 50.0 °F 39.9 °F 68% 30.08 in 10.0 mi WSW 10.4 mph 17.3 mph N/A   Mostly Cloudy